Theta_e
315 315 314 314 313 312 312 313 313 314 316 317 318 318 319 319 315 308 303 310 315 321 320 310 308 308 310 306 306 308 302 297 296 296 295 298 297 299 301 299 300 301 300 302 305
314 315 314 314 313 312 312 312 313 313 315 316 317 318 319 319 305 303 309 317 318 319 310 305 306 307 306 303 304 305 301 298 299 298 296 297 298 298 298 297 297 299 302 303 304
315 315 314 314 313 312 312 312 312 313 314 315 317 318 319 315 301 300 314 316 316 314 308 305 305 306 302 303 300 299 299 297 295 297 299 297 297 299 297 295 298 297 298 301 302
315 315 315 314 313 313 312 312 312 313 314 315 317 318 319 306 295 304 314 314 314 309 306 303 304 303 301 298 298 295 296 297 297 297 297 296 298 296 297 298 300 299 300 300 300
316 315 315 314 313 313 312 312 312 312 313 315 317 319 312 299 299 308 314 313 308 306 303 301 301 302 298 296 298 296 295 297 297 296 297 297 296 296 296 300 300 299 299 299 299
318 316 316 314 314 313 313 312 311 312 313 315 317 318 305 294 306 309 308 307 306 305 303 302 301 302 297 295 296 297 296 295 296 296 296 295 295 296 298 300 298 297 298 298 299
318 318 316 315 314 313 313 312 312 312 313 315 317 309 302 300 307 308 307 305 306 305 301 302 303 301 300 295 299 297 293 294 295 295 294 297 292 293 298 298 297 297 298 298 299
318 317 317 315 314 314 314 312 312 312 314 316 317 305 298 306 309 306 308 306 307 306 304 305 305 301 299 299 296 293 294 290 294 295 295 294 291 296 297 297 296 297 297 297 298
318 317 317 315 315 314 313 313 313 313 314 315 307 303 296 308 302 305 306 303 305 304 303 303 303 298 297 294 291 292 290 290 291 295 295 293 292 295 297 296 296 296 297 297 298
318 317 317 316 315 314 313 313 312 312 308 308 305 298 299 297 303 303 305 305 302 302 300 299 298 295 295 293 288 290 288 290 290 292 293 292 291 294 295 295 296 296 296 296 296
319 318 317 316 314 312 308 308 303 303 303 298 298 297 298 302 304 301 303 302 301 298 293 295 293 289 292 294 292 293 292 291 292 293 291 291 292 295 295 294 295 295 295 295 295
318 318 317 314 312 309 307 299 301 302 295 301 300 300 302 303 295 299 304 298 296 292 293 292 289 291 293 292 291 291 290 290 290 292 291 292 291 295 296 294 295 295 295 294 295
313 317 316 313 309 306 302 302 307 305 295 297 299 298 299 300 295 296 300 297 294 291 292 292 290 292 290 289 289 290 290 290 289 291 292 290 289 292 294 294 294 294 294 294 294
311 316 315 311 303 303 300 306 308 306 293 296 294 297 299 299 293 299 300 297 294 291 291 291 292 290 289 289 290 287 291 290 289 288 286 289 286 288 291 290 291 292 293 294 294
311 313 314 306 301 298 302 306 307 306 284 294 293 301 299 294 295 295 300 297 291 290 291 289 289 288 288 289 290 288 291 290 289 288 286 286 284 288 291 288 290 292 293 293 294
309 312 308 302 301 301 305 305 305 292 284 287 292 293 292 293 293 296 296 298 296 292 292 290 293 291 290 290 290 291 289 289 289 287 282 286 286 291 287 288 291 292 292 293 293
308 310 307 303 298 303 304 304 286 284 292 288 288 292 292 290 291 293 291 290 290 287 287 288 288 291 292 288 290 289 286 284 282 281 281 285 283 288 292 292 293 292 291 293 293
308 309 302 302 304 304 303 292 284 287 287 290 290 291 288 290 290 291 290 288 290 290 287 284 282 288 292 289 288 287 287 286 281 281 282 283 281 287 290 293 295 294 292 293 293
305 301 300 301 303 304 295 284 288 290 294 289 289 287 288 289 290 289 289 289 291 291 286 284 284 289 290 290 289 287 283 287 282 277 280 285 287 286 288 290 292 291 291 291 292
303 298 296 302 304 300 288 288 288 295 291 291 288 291 286 287 286 287 288 292 291 292 298 291 284 286 288 290 290 288 288 281 283 279 278 284 284 287 283 285 289 288 289 291 292
299 294 297 302 302 291 285 286 290 295 292 289 289 288 289 287 287 287 289 290 293 292 294 291 288 283 287 285 285 284 284 284 284 282 280 280 285 288 286 287 288 289 290 291 291
297 287 298 302 286 285 285 287 292 291 292 289 289 288 287 288 287 287 287 290 294 293 288 293 288 282 283 288 288 289 286 286 282 281 282 281 285 289 290 291 291 290 291 292 291
289 287 298 297 284 284 286 286 290 288 289 289 288 289 290 288 284 288 288 290 292 292 291 291 287 281 281 283 285 283 286 286 286 284 282 280 284 288 289 292 292 291 291 291 291
287 284 286 289 289 288 286 286 286 290 291 291 289 288 286 285 287 286 286 289 291 291 291 293 288 285 284 283 285 281 284 286 285 282 283 283 286 286 287 290 291 291 292 291 290
287 285 290 281 283 285 289 289 286 285 290 292 286 288 287 285 286 284 287 286 288 291 289 289 284 285 286 284 284 284 284 285 283 285 283 286 285 288 290 290 292 293 292 290 289
285 285 286 286 287 285 286 285 286 289 286 285 286 289 289 286 288 285 286 285 285 288 287 288 284 282 282 284 283 281 284 285 286 286 286 286 285 293 295 294 293 292 290 289 288
292 293 287 286 286 284 284 285 286 290 291 292 289 290 286 288 293 292 292 291 290 287 285 285 285 282 282 277 278 277 279 283 286 287 287 283 288 294 292 292 292 292 291 290 290
Wind_Speed
6 8 10 11 11 12 13 13 13 13 13 14 14 13 14 14 7 2 4 7 9 16 13 6 4 3 3 4 4 3 5 5 5 8 8 10 6 3 2 5 5 4 7 6 8
5 7 8 10 11 12 13 13 14 13 14 14 14 13 13 12 3 6 4 11 12 11 4 4 6 5 4 3 3 4 4 4 4 7 7 11 6 8 6 7 6 6 5 6 8
6 7 8 9 10 12 13 14 14 14 14 14 14 13 13 8 4 3 9 13 10 8 3 1 1 2 5 3 5 5 5 7 4 2 10 9 7 4 5 4 3 3 5 8 9
5 7 8 9 10 11 12 13 14 15 14 14 14 12 13 4 1 3 11 12 8 3 3 3 4 2 3 3 3 5 4 2 7 4 6 8 8 5 2 7 6 5 5 7 11
6 7 8 9 10 11 12 13 14 15 15 14 14 11 5 4 3 7 10 6 3 1 1 3 6 3 5 6 5 9 7 9 8 6 6 6 5 1 6 7 5 3 4 8 10
7 7 8 9 11 11 12 13 14 14 15 14 13 13 3 4 3 8 9 3 4 2 2 0 1 7 9 5 4 7 11 11 7 8 6 5 4 3 7 7 5 1 4 6 8
7 7 8 9 12 13 13 14 14 14 15 13 10 5 3 3 3 6 6 4 5 2 4 5 5 1 8 9 9 13 10 7 7 7 4 3 6 10 8 8 6 3 1 4 7
9 7 8 8 12 14 16 16 15 15 12 9 7 3 1 1 4 4 5 6 8 10 11 9 10 10 4 14 6 4 6 5 10 9 5 5 2 11 8 10 8 3 2 3 5
9 9 7 9 9 14 17 18 17 8 5 7 3 3 1 0 0 3 5 3 3 6 6 4 3 6 7 8 6 7 6 10 6 11 5 11 1 8 8 9 9 5 2 3 5
10 9 7 7 9 13 18 18 5 5 3 2 1 3 1 1 3 3 2 2 2 4 4 1 3 4 7 10 7 8 7 6 10 12 11 11 14 8 9 10 9 5 3 2 5
11 9 8 6 8 12 12 4 4 4 3 2 3 3 2 1 2 2 3 3 2 2 6 2 6 11 16 16 3 6 10 8 4 5 10 15 14 9 13 11 10 8 4 1 4
10 10 8 4 6 11 5 4 4 3 5 2 2 2 2 1 2 2 3 5 5 5 4 3 9 3 5 5 4 5 6 5 3 7 7 8 15 13 13 13 11 8 5 1 2
21 9 7 3 5 4 3 4 2 2 5 3 1 1 2 2 2 4 3 2 3 6 8 7 3 1 3 6 8 7 10 5 3 7 8 8 14 17 8 10 8 7 4 3 3
20 6 8 3 3 1 2 2 2 3 2 3 3 3 2 1 3 3 3 3 2 6 5 4 4 4 4 4 6 9 2 3 6 7 4 4 5 7 13 14 13 11 9 5 4
16 13 8 2 2 2 1 1 1 2 5 4 4 2 2 2 4 3 3 4 3 4 3 4 6 5 5 1 1 4 4 4 3 5 3 7 6 4 10 15 15 14 11 8 5
15 12 11 2 1 1 2 2 2 2 9 1 2 4 5 3 3 4 1 5 2 5 6 4 1 1 3 4 2 11 7 4 2 3 6 10 9 6 9 11 17 17 13 11 8
15 5 2 0 2 4 2 1 5 5 3 2 2 5 6 6 4 5 6 5 5 5 5 0 2 2 2 5 4 3 4 3 3 5 6 3 5 10 7 5 16 20 16 13 10
10 10 3 1 1 1 3 5 6 3 5 1 1 4 5 8 4 7 6 7 5 3 4 9 8 10 9 3 3 9 3 4 6 5 2 3 8 4 2 5 13 17 15 14 12
2 2 1 0 3 1 4 4 6 7 6 7 1 5 7 7 3 6 9 7 11 15 7 5 4 2 1 2 4 7 8 4 2 1 2 8 6 4 6 10 16 18 17 16 15
0 0 0 0 2 4 2 6 5 2 5 4 6 8 5 7 6 8 10 5 6 16 13 8 3 4 4 1 6 5 3 4 3 5 6 5 5 7 14 17 19 20 19 17 16
2 3 2 2 3 2 5 6 5 5 6 6 6 5 5 5 8 4 4 1 9 11 11 9 6 5 5 11 11 6 5 6 4 3 3 4 6 4 17 22 25 22 20 20 19
2 3 4 4 4 3 5 6 5 7 3 3 3 3 3 2 4 6 7 1 6 12 11 8 4 5 7 3 2 8 8 11 6 8 5 3 8 2 1 19 20 21 18 20 18
1 1 1 1 6 7 2 2 5 6 7 9 10 6 1 6 5 11 2 4 5 9 12 9 4 3 3 3 5 8 10 7 5 4 7 5 3 1 3 15 18 20 20 18 19
1 4 2 2 1 5 7 5 6 7 7 6 6 6 5 6 6 2 3 4 5 5 8 7 6 8 5 3 5 7 13 17 14 9 11 19 16 6 9 15 19 21 21 22 18
3 3 3 8 9 7 4 7 14 11 10 13 6 13 9 7 6 6 5 2 3 3 3 4 6 8 15 4 4 5 9 19 23 24 17 14 25 17 15 19 22 20 20 20 19
3 2 1 1 3 14 16 19 20 18 12 8 12 16 14 11 14 9 9 8 6 9 6 1 2 2 4 5 8 15 15 15 22 23 25 23 31 12 10 15 17 22 23 23 22
3 4 1 2 8 9 20 24 21 16 16 20 16 12 15 20 6 1 6 7 6 10 10 6 4 2 5 3 2 13 21 24 21 19 22 21 28 5 16 16 20 23 25 25 24
Wind_Direction
0 356 352 352 347 345 347 347 349 350 347 343 343 349 341 334 281 218 51 349 315 319 313 286 238 153 160 87 26 330 223 168 155 166 142 156 151 120 166 119 73 64 55 18 345
346 350 352 348 343 341 343 343 342 346 343 342 339 343 338 330 271 67 35 328 322 319 278 249 166 182 94 84 35 307 257 81 27 83 155 161 173 144 171 154 129 130 109 19 352
328 335 344 341 338 339 338 338 338 337 339 337 335 336 332 313 244 66 5 335 327 298 262 277 285 248 103 56 14 22 26 125 85 80 133 139 144 164 185 180 72 72 17 4 354
302 318 329 331 334 334 332 334 334 331 334 333 330 331 324 257 259 36 347 333 320 268 249 191 221 170 102 110 63 112 69 86 125 121 136 162 130 172 217 72 96 75 17 360 360
283 300 312 319 323 326 327 328 329 327 328 328 325 327 292 217 63 354 332 339 282 238 240 201 207 168 127 109 97 100 125 110 116 138 143 131 174 182 186 143 131 77 20 8 360
258 283 300 312 316 321 322 320 322 323 322 323 322 315 264 234 352 345 341 349 6 239 119 205 155 98 96 73 10 120 134 127 140 140 144 181 171 224 166 163 158 57 16 6 354
258 271 285 307 314 317 315 315 316 317 316 314 316 311 257 47 346 355 13 26 357 321 112 86 99 121 125 112 117 130 123 140 169 171 141 202 210 221 143 181 193 211 285 351 1
266 265 281 297 310 312 313 309 308 308 305 299 300 282 27 48 357 19 349 77 68 64 92 91 99 86 67 125 117 141 169 190 161 176 138 213 294 172 171 192 210 227 279 346 11
254 265 265 286 304 310 310 305 300 291 287 287 245 284 96 99 334 7 7 68 84 72 73 105 66 99 146 157 139 200 222 212 168 201 147 208 265 153 188 206 223 227 273 346 6
239 245 262 280 307 315 315 302 292 257 181 232 262 244 139 57 27 348 40 359 86 128 135 125 114 142 186 199 215 198 225 214 206 189 209 209 248 169 201 217 219 216 231 347 18
239 223 235 266 305 320 327 300 232 179 201 347 29 10 124 73 198 49 354 167 172 203 196 100 215 207 199 210 342 316 226 204 159 147 201 231 246 247 192 219 218 214 215 54 43
304 212 217 223 301 315 302 358 42 349 299 157 140 124 27 326 161 98 339 203 188 183 148 180 235 30 28 134 197 194 208 200 110 168 219 246 251 245 207 210 216 205 196 141 57
1 203 201 197 303 284 360 49 10 323 263 142 124 170 91 252 7 120 336 256 199 189 190 219 59 84 209 179 196 213 221 175 328 169 237 283 258 223 213 198 186 199 171 151 80
358 265 175 162 270 5 83 95 27 343 333 193 150 106 162 162 203 14 31 309 112 217 165 252 122 186 185 205 217 220 134 188 159 187 265 214 287 198 185 201 200 194 190 157 128
352 336 165 211 123 125 67 261 264 235 311 72 120 49 138 216 115 96 14 220 145 122 222 141 167 173 191 85 264 76 141 140 171 232 314 190 255 137 173 208 200 193 176 160 136
351 347 128 77 359 128 180 240 236 53 249 164 135 155 161 179 139 126 144 54 22 94 50 62 25 12 41 79 317 140 118 108 171 225 242 224 221 189 189 218 189 183 172 159 152
328 306 276 222 206 165 184 323 60 220 328 250 198 177 206 172 180 196 173 181 184 139 193 126 153 115 189 116 120 235 170 182 222 207 253 133 207 264 188 181 183 172 166 162 162
25 107 111 343 254 159 75 49 179 182 229 28 162 169 203 162 188 188 179 207 242 115 129 196 229 185 168 269 217 195 264 218 232 205 110 148 228 224 54 141 158 162 159 157 162
8 14 54 260 319 11 91 182 230 188 146 155 184 202 206 192 219 190 221 221 200 196 193 196 201 120 37 25 329 171 217 15 72 90 245 211 211 170 159 164 157 161 162 169 166
298 137 198 234 332 56 83 225 220 200 124 138 201 204 194 196 194 198 202 225 203 200 196 184 247 181 134 142 221 253 352 167 197 234 243 230 250 236 191 179 176 174 176 173 168
218 219 147 217 74 80 226 213 211 179 154 158 179 270 250 171 210 218 224 197 198 184 201 150 217 126 157 196 190 186 210 231 290 233 258 270 232 19 190 184 183 180 181 176 173
275 231 184 193 142 202 210 183 217 165 157 131 124 101 282 332 241 242 240 253 163 160 180 175 162 196 205 151 329 274 236 207 235 193 239 320 260 77 114 185 184 179 180 179 178
307 115 263 269 202 201 156 219 213 167 182 182 195 184 170 188 225 229 269 15 199 191 172 173 197 172 215 195 190 218 216 243 279 283 209 248 246 163 169 178 181 182 180 178 179
164 184 207 218 319 257 183 197 210 209 205 180 164 122 148 190 225 268 223 22 359 251 360 201 200 231 242 80 118 201 209 203 214 237 231 236 258 187 190 186 185 187 183 182 179
209 243 214 207 219 227 216 196 204 205 222 192 205 203 173 195 184 217 201 146 221 192 248 234 245 248 261 243 211 237 222 212 209 223 215 236 238 240 202 196 196 183 181 182 183
261 226 195 5 226 200 222 229 227 215 168 204 233 193 200 194 195 186 178 167 190 192 205 192 264 338 260 237 239 260 241 229 228 229 241 253 262 248 240 184 182 189 184 188 186
199 257 220 251 187 206 216 234 240 231 224 230 217 224 214 224 205 7 180 171 169 177 177 182 214 177 252 358 314 272 220 226 222 220 222 231 241 221 206 187 190 188 191 192 187